Location: Arcones
(41.1182°N, 3.7238°W)
Time: 08:40:20
(UTC+00:00)

IRAS Rocket - Pass Details

Date: 21 March 2026
Orbit: 845 x 876 km, 100.1° (Epoch: 18 April)

Event Time Altitude Azimuth Distance (km) Brightness Sun altitude
Rises 19:17:30 0° 148° (SSE) 3,449 7.0 -10.1°
Reaches altitude 10° 19:19:56 10° 143° (SE) 2,512 6.2 -10.5°
Maximum altitude 19:25:19 51° 69° (ENE) 1,079 4.4 -11.5°
Drops below altitude 10° 19:30:41 10° 355° (N) 2,509 6.9 -12.5°
Sets 19:33:06 0° 350° (N) 3,445 7.7 -13.0°
